Showing default

OPS 0100 (TRANSIT 15), 2754

Orbit data source: Space-Track

OPS 0100 (TRANSIT 15), 2754 is a payload satellite owned by USN NAVAIR (US) in LEO that was launched on Fri, 14 Apr 1967 UTC via an SCOUT A launch vehicle from the Air Force Western Test Range (AFWTR). Payload-class satellites include a variety of spacecraft equipped with specific instruments for various scientific and technological missions. These include communications satellites like Starlink; space stations such as the ISS; scientific satellites like the Hubble; Earth observation satellites from companies like Planet Labs, Umbra, and HawkEye 360; GPS; miniature CubeSats for education and research; and military/defense satellites.

Loading next visibility...
Identifier
2754, 1967-034A
Orbit
LEO
Country
Flag of USUS
Related business
Manufacturer
APL
Mission
Spacecraft
Bus & Motor
TRANSIT 5, Unknown motor
Mass
~50 kg wet, ~50 kg dry
Launch date (UTC)
1967-04-14 (59 years ago)
Launch vehicle
SCOUT A
Launch site
Air Force Western Test Range (AFWTR)
Object type
Payload
Rocket body
Debris
Shape & HBR
Unknown
Radar Cross Section
Large (>1 m²)

Expand to show TLE details & history
Last TLE update: 19 hours ago

TLE from 19 hours ago
0 OPS 0100 (TRANSIT 15)
1  2754U 67034A   26015.61143409  .00000123  00000-0  15953-3 0  9992
2  2754  90.2248  31.5580 0018024 229.1147 245.3748 13.57366786905412
Epoch: 2026-01-15T14:40Z
TLE epoch observation values (Epoch: 2026-01-15T14:40:27.905Z)
Latitude
65.77752°
Longitude
-123.12373°
Altitude
1,062.326 km
Speed
7.324 km/s
True Right ascension
14h 08m 13s
True Declination
65° 39' 14"
Sunlit
Object was in daylight at epoch
Visualization orbit readout
Latitude
Unknown
Longitude
Unknown
Altitude
Unknown
Speed
Unknown
Apparent Right ascension
Unknown
Apparent Declination
Unknown
Sunlit
N/A
Visualization observer readout
Local Sidereal Time
10:43:53
Azimuth
Unknown
Elevation
Unknown
Doppler factor
Unknown
Orbital elements
Apogee altitude
1,055.691 km
Perigee altitude
1,028.942 km
Semi-major axis
7,420.453 km
Eccentricity
0.0018
Inclination
90.2248°
RAAN
31.558°
Arg. of periapsis
229.1147°
True anomaly
245.18722°
Mean anomaly
245.3748°
Eccentric anomaly
245.28099°
Mean motion
3.39545 °/min
Orbital period
106.02 mins
BSTAR
0.00015953
Loading maneuver chart data...
Computing Atmospheric mass density...
Loading historical data...
Loading historical data...
Loading historical data...
Loading historical data...
Loading historical data...
Loading historical data...
Loading historical data...

Documentation

Showing up to 5 results
|